Location: Waning Moon II Observatory
(30.3730°N, 89.7620°W)
Time: 03:24:53
(UTC-05:00)

Meteor 1-21 - Visible Passes

Search period start: 25 April 2014 00:00
Search period end: 05 May 2014 00:00
Orbit: 846 x 887 km, 81.2° (Epoch: 24 April)

Date Brightness Start Highest point End Pass type
(mag) Time Alt. Az. Time Alt. Az. Time Alt. Az.
25 Apr 6.8 01:50:38 16° NNE 01:50:38 16° NNE 01:51:48 10° NNE visible
25 Apr 6.4 03:32:59 15° NW 03:32:59 15° NW 03:34:22 10° NNW visible
26 Apr 6.8 01:43:33 15° NNE 01:43:33 15° NNE 01:44:39 10° NNE visible
26 Apr 6.4 03:25:54 15° NW 03:25:54 15° NW 03:27:10 10° NNW visible
27 Apr 6.8 01:36:27 15° NNE 01:36:27 15° NNE 01:37:29 10° NNE visible
27 Apr 6.5 03:18:48 14° NNW 03:18:48 14° NNW 03:19:58 10° NNW visible
28 Apr 6.8 01:29:21 15° NNE 01:29:21 15° NNE 01:30:20 10° NNE visible
28 Apr 6.5 03:11:42 14° NNW 03:11:42 14° NNW 03:12:46 10° NNW visible
29 Apr 6.8 01:22:13 15° NNE 01:22:13 15° NNE 01:23:10 10° NNE visible
29 Apr 6.6 03:04:34 14° NNW 03:04:34 14° NNW 03:05:34 10° NNW visible
30 Apr 6.8 01:15:05 15° NNE 01:15:05 15° NNE 01:16:00 10° NNE visible
30 Apr 6.6 02:57:26 13° NNW 02:57:26 13° NNW 02:58:21 10° NNW visible
01 May 6.8 01:07:56 14° NNE 01:07:56 14° NNE 01:08:50 10° NNE visible
01 May 6.7 02:50:17 13° NNW 02:50:17 13° NNW 02:51:09 10° NNW visible
02 May 6.8 01:00:46 15° NNE 01:00:46 15° NNE 01:01:40 10° NNE visible
02 May 6.7 02:43:07 13° NNW 02:43:07 13° NNW 02:43:57 10° NNW visible
03 May 6.8 00:53:36 15° NNE 00:53:36 15° NNE 00:54:31 10° NNE visible
03 May 6.7 02:35:56 13° NNW 02:35:56 13° NNW 02:36:44 10° NNW visible
04 May 6.8 00:46:24 15° NNE 00:46:24 15° NNE 00:47:21 10° NNE visible
04 May 6.7 02:28:45 13° NNW 02:28:45 13° NNW 02:29:32 10° NNW visible
